User: anonymous   Login
Location: Unspecified
(0.0000°N, 0.0000°E)
Time: 15:34:11
(UTC+00:00)
Language:

USA 142 - Orbit

View from above orbital plane
View from above orbital plane
View from above satellite
View from above satellite

Ground track
Ground track

The orbit data is extracted from the following two-line orbital elements,

1 25669U 99017A   17187.63350721 0.00000000  00000-0  00000-0 0    08
2 25669  28.9103 110.7887 7109699 133.1472 314.1044  2.32908274    01
Epoch (UTC): 06 July 2017 15:12:15
Eccentricity: 0.7109699
inclination: 28.9103°
perigee height: 570 km
apogee height: 34754 km
right ascension of ascending node: 110.7887°
argument of perigee: 133.1472°
revolutions per day: 2.32908274
mean anomaly at epoch: 314.1044°
orbit number at epoch: 0

The dashed part of the orbit path shows where the satellite is in the earth's shadow,  

DLR